UAL2498 KIAH-KRDU

Flight info

Callsign UAL2498
Flight time 2h 4m
Altitude 37000
Route MMUGS4 GUSTI Q22 CATLN MGMRY IRQ PYRES DMSTR2
Aircraft A320/M-SDE3FGHIRWY/LB1

Departure

Time 2026-05-06 22:20
Airport George Bush Intercontinental Airport (KIAH)

Arrival

Time 2026-05-07 00:24
Airport Raleigh-Durham International Airport (KRDU)
Time Latitude Longitude Altitude Speed Heading
2026-05-06 22:00 29.98456 -95.33892 107 ft 0 kts 78°
2026-05-06 22:08 29.98454 -95.33904 107 ft 4 kts 71°
2026-05-06 22:09 29.98441 -95.33928 106 ft 4 kts 32°
2026-05-06 22:09 29.98417 -95.33940 107 ft 4 kts 36°
2026-05-06 22:09 29.98408 -95.33959 107 ft 4 kts 88°
2026-05-06 22:09 29.98414 -95.33983 106 ft 4 kts 150°
2026-05-06 22:10 29.98437 -95.33993 106 ft 4 kts 165°
2026-05-06 22:10 29.98451 -95.33997 106 ft 0 kts 165°
2026-05-06 22:13 29.98444 -95.33995 107 ft 5 kts 167°
2026-05-06 22:13 29.98388 -95.34023 107 ft 11 kts 232°
2026-05-06 22:14 29.98376 -95.34127 107 ft 16 kts 270°
2026-05-06 22:14 29.98376 -95.34283 107 ft 21 kts 270°
2026-05-06 22:14 29.98355 -95.34446 107 ft 21 kts 240°
2026-05-06 22:14 29.98324 -95.34593 107 ft 20 kts 270°
2026-05-06 22:15 29.98323 -95.34761 107 ft 22 kts 269°
2026-05-06 22:15 29.98323 -95.34945 107 ft 24 kts 270°
2026-05-06 22:15 29.98324 -95.35119 107 ft 12 kts 271°
2026-05-06 22:15 29.98376 -95.35197 107 ft 14 kts 331°
2026-05-06 22:16 29.98465 -95.35253 107 ft 16 kts 331°
2026-05-06 22:16 29.98566 -95.35316 106 ft 17 kts 332°
2026-05-06 22:16 29.98679 -95.35385 107 ft 19 kts 332°
2026-05-06 22:16 29.98804 -95.35461 107 ft 21 kts 332°
2026-05-06 22:17 29.98883 -95.35556 107 ft 16 kts 261°
2026-05-06 22:17 29.98832 -95.35670 107 ft 10 kts 242°
2026-05-06 22:17 29.98829 -95.35676 106 ft 0 kts 242°
2026-05-06 22:18 29.98826 -95.35683 107 ft 5 kts 242°
2026-05-06 22:18 29.98789 -95.35758 109 ft 11 kts 227°
2026-05-06 22:19 29.98695 -95.35729 108 ft 32 kts 152°
2026-05-06 22:19 29.98289 -95.35483 107 ft 96 kts 152°
2026-05-06 22:19 29.97542 -95.35029 106 ft 144 kts 152°
2026-05-06 22:19 29.96558 -95.34420 306 ft 167 kts 152°
2026-05-06 22:20 29.95564 -95.33705 883 ft 170 kts 141°
2026-05-06 22:20 29.94764 -95.32695 1463 ft 172 kts 133°
2026-05-06 22:20 29.94018 -95.31582 1974 ft 182 kts 130°
2026-05-06 22:20 29.93203 -95.30356 2185 ft 205 kts 131°
2026-05-06 22:21 29.92276 -95.28976 2430 ft 230 kts 131°
2026-05-06 22:21 29.91400 -95.27319 2749 ft 258 kts 110°
2026-05-06 22:21 29.91162 -95.25190 3289 ft 275 kts 95°
2026-05-06 22:21 29.91055 -95.22966 3859 ft 281 kts 95°
2026-05-06 22:22 29.90946 -95.20633 4394 ft 295 kts 95°
2026-05-06 22:22 29.90837 -95.18303 5520 ft 290 kts 95°
2026-05-06 22:22 29.90725 -95.15974 6441 ft 293 kts 94°
2026-05-06 22:22 29.90612 -95.13608 7148 ft 300 kts 95°
2026-05-06 22:23 29.90491 -95.11190 7919 ft 304 kts 95°
2026-05-06 22:23 29.90366 -95.08739 8746 ft 308 kts 95°
2026-05-06 22:23 29.90238 -95.06249 9542 ft 313 kts 96°
2026-05-06 22:23 29.90108 -95.03719 10213 ft 321 kts 96°
2026-05-06 22:24 29.89966 -95.01064 10387 ft 344 kts 96°
2026-05-06 22:24 29.89814 -94.98230 10558 ft 363 kts 96°
2026-05-06 22:24 29.89659 -94.95296 11006 ft 370 kts 96°
2026-05-06 22:24 29.89505 -94.92311 11518 ft 376 kts 97°
2026-05-06 22:25 29.89350 -94.89295 12056 ft 380 kts 97°
2026-05-06 22:25 29.89189 -94.86241 12602 ft 383 kts 97°
2026-05-06 22:25 29.89026 -94.83161 13156 ft 387 kts 98°
2026-05-06 22:25 29.88859 -94.80049 13693 ft 391 kts 98°
2026-05-06 22:26 29.88694 -94.76948 14169 ft 395 kts 98°
2026-05-06 22:26 29.88523 -94.73771 14633 ft 399 kts 98°
2026-05-06 22:26 29.88350 -94.70565 15096 ft 404 kts 98°
2026-05-06 22:26 29.88174 -94.67320 15563 ft 408 kts 98°
2026-05-06 22:27 29.87995 -94.64044 16048 ft 412 kts 98°
2026-05-06 22:27 29.87814 -94.60738 16534 ft 416 kts 98°
2026-05-06 22:27 29.87633 -94.57399 17039 ft 420 kts 98°
2026-05-06 22:27 29.87449 -94.54018 17512 ft 425 kts 98°
2026-05-06 22:28 29.87262 -94.50603 17984 ft 430 kts 98°
2026-05-06 22:28 29.87072 -94.47151 18430 ft 434 kts 98°
2026-05-06 22:28 29.86878 -94.43670 18867 ft 438 kts 98°
2026-05-06 22:28 29.86677 -94.40155 19321 ft 441 kts 98°
2026-05-06 22:29 29.86470 -94.36613 19785 ft 445 kts 98°
2026-05-06 22:29 29.86262 -94.33038 20261 ft 449 kts 98°
2026-05-06 22:29 29.86075 -94.29431 20727 ft 454 kts 97°
2026-05-06 22:29 29.85941 -94.25779 21199 ft 458 kts 96°
2026-05-06 22:30 29.85842 -94.22095 21664 ft 462 kts 95°
2026-05-06 22:30 29.85757 -94.18379 22119 ft 466 kts 95°
2026-05-06 22:30 29.85670 -94.14634 22532 ft 470 kts 95°
2026-05-06 22:30 29.85572 -94.10852 22973 ft 474 kts 95°
2026-05-06 22:31 29.85462 -94.07046 23401 ft 477 kts 95°
2026-05-06 22:31 29.85521 -94.03199 23747 ft 484 kts 87°
2026-05-06 22:31 29.85909 -93.99380 24092 ft 488 kts 85°
2026-05-06 22:31 29.86322 -93.95489 24441 ft 491 kts 85°
2026-05-06 22:32 29.86739 -93.91574 24791 ft 494 kts 85°
2026-05-06 22:32 29.87162 -93.87641 25127 ft 497 kts 85°
2026-05-06 22:32 29.87590 -93.83679 25462 ft 500 kts 85°
2026-05-06 22:32 29.88018 -93.79695 25813 ft 502 kts 85°
2026-05-06 22:33 29.88441 -93.75690 26143 ft 505 kts 85°
2026-05-06 22:33 29.88864 -93.71664 26452 ft 508 kts 85°
2026-05-06 22:33 29.89291 -93.67615 26765 ft 510 kts 85°
2026-05-06 22:33 29.89719 -93.63546 27069 ft 513 kts 85°
2026-05-06 22:34 29.90149 -93.59450 27382 ft 516 kts 85°
2026-05-06 22:34 29.90578 -93.55334 27690 ft 519 kts 85°
2026-05-06 22:34 29.91005 -93.51195 27997 ft 521 kts 85°
2026-05-06 22:34 29.91432 -93.47038 28311 ft 524 kts 85°
2026-05-06 22:35 29.91859 -93.42859 28639 ft 527 kts 85°
2026-05-06 22:35 29.92288 -93.38650 28967 ft 530 kts 85°
2026-05-06 22:35 29.92721 -93.34423 29263 ft 533 kts 85°
2026-05-06 22:35 29.93155 -93.30172 29550 ft 535 kts 85°
2026-05-06 22:36 29.93591 -93.25901 29839 ft 538 kts 85°
2026-05-06 22:36 29.94029 -93.21609 30096 ft 540 kts 85°
2026-05-06 22:36 29.94466 -93.17301 30344 ft 542 kts 85°
2026-05-06 22:36 29.94900 -93.12982 30678 ft 542 kts 85°
2026-05-06 22:37 29.95331 -93.08669 31039 ft 541 kts 85°
2026-05-06 22:37 29.95760 -93.04368 31397 ft 540 kts 85°
2026-05-06 22:37 29.96189 -93.00075 31786 ft 539 kts 84°
2026-05-06 22:37 29.96615 -92.95784 32169 ft 538 kts 84°
2026-05-06 22:38 29.97058 -92.91507 32557 ft 537 kts 81°
2026-05-06 22:38 29.97803 -92.87293 32942 ft 536 kts 77°
2026-05-06 22:38 29.98625 -92.83103 33329 ft 535 kts 77°
2026-05-06 22:38 29.99446 -92.78914 33719 ft 535 kts 77°
2026-05-06 22:39 30.00261 -92.74733 34085 ft 534 kts 77°
2026-05-06 22:39 30.01060 -92.70612 34401 ft 533 kts 77°
2026-05-06 22:39 30.01867 -92.66444 34707 ft 532 kts 77°
2026-05-06 22:39 30.02671 -92.62281 35024 ft 531 kts 77°
2026-05-06 22:40 30.03473 -92.58118 35341 ft 531 kts 77°
2026-05-06 22:40 30.04271 -92.53968 35636 ft 530 kts 77°
2026-05-06 22:40 30.05069 -92.49817 35916 ft 529 kts 77°
2026-05-06 22:40 30.05866 -92.45673 36194 ft 529 kts 77°
2026-05-06 22:41 30.07188 -92.38791 36647 ft 528 kts 77°
2026-05-06 22:41 30.07981 -92.34650 36860 ft 528 kts 77°
2026-05-06 22:42 30.09568 -92.26306 36928 ft 537 kts 77°
2026-05-06 22:42 30.11188 -92.17753 36913 ft 545 kts 77°
2026-05-06 22:43 30.12805 -92.09195 36916 ft 546 kts 77°
2026-05-06 22:43 30.14429 -92.00631 36917 ft 546 kts 77°
2026-05-06 22:44 30.16038 -91.92061 36919 ft 546 kts 78°
2026-05-06 22:44 30.17628 -91.83486 36923 ft 546 kts 77°
2026-05-06 22:45 30.19229 -91.74910 36930 ft 546 kts 77°
2026-05-06 22:45 30.20832 -91.66331 36936 ft 546 kts 77°
2026-05-06 22:46 30.22419 -91.57739 36939 ft 547 kts 77°
2026-05-06 22:46 30.23995 -91.49140 36928 ft 546 kts 77°
2026-05-06 22:47 30.25556 -91.40602 36941 ft 546 kts 77°
2026-05-06 22:47 30.27126 -91.32009 36942 ft 546 kts 77°
2026-05-06 22:48 30.28696 -91.23411 36942 ft 546 kts 77°
2026-05-06 22:48 30.30256 -91.14817 36940 ft 546 kts 77°
2026-05-06 22:49 30.31808 -91.06227 36939 ft 545 kts 77°
2026-05-06 22:49 30.33357 -90.97635 36937 ft 545 kts 77°
2026-05-06 22:50 30.34894 -90.89048 36946 ft 545 kts 77°
2026-05-06 22:50 30.36422 -90.80449 36950 ft 545 kts 78°
2026-05-06 22:51 30.37944 -90.71851 36938 ft 544 kts 77°
2026-05-06 22:51 30.39466 -90.63270 36939 ft 544 kts 77°
2026-05-06 22:52 30.40988 -90.54667 36935 ft 546 kts 77°
2026-05-06 22:52 30.42509 -90.46045 36917 ft 547 kts 77°
2026-05-06 22:53 30.44023 -90.37399 36931 ft 548 kts 77°
2026-05-06 22:53 30.45528 -90.28730 36927 ft 549 kts 77°
2026-05-06 22:54 30.47043 -90.20047 36932 ft 550 kts 74°
2026-05-06 22:54 30.49166 -90.11548 36943 ft 549 kts 71°
2026-05-06 22:55 30.51347 -90.03049 36951 ft 550 kts 71°
2026-05-06 22:55 30.53486 -89.94647 36941 ft 541 kts 71°
2026-05-06 22:56 30.55589 -89.86328 36933 ft 535 kts 71°
2026-05-06 22:56 30.57682 -89.78053 36935 ft 534 kts 71°
2026-05-06 22:57 30.59770 -89.69780 36937 ft 534 kts 71°
2026-05-06 22:57 30.61849 -89.61518 36933 ft 533 kts 71°
2026-05-06 22:58 30.63923 -89.53244 36939 ft 534 kts 71°
2026-05-06 22:58 30.65996 -89.44967 36949 ft 534 kts 71°
2026-05-06 22:59 30.68064 -89.36671 36967 ft 534 kts 72°
2026-05-06 22:59 30.70120 -89.28376 36977 ft 534 kts 72°
2026-05-06 23:00 30.72177 -89.20074 36997 ft 535 kts 71°
2026-05-06 23:00 30.74231 -89.11751 36982 ft 536 kts 71°
2026-05-06 23:01 30.76287 -89.03408 36980 ft 537 kts 71°
2026-05-06 23:01 30.78336 -88.95050 36980 ft 538 kts 71°
2026-05-06 23:02 30.80386 -88.86680 36992 ft 538 kts 71°
2026-05-06 23:02 30.82434 -88.78300 36985 ft 539 kts 71°
2026-05-06 23:03 30.84476 -88.69899 36986 ft 540 kts 71°
2026-05-06 23:03 30.86514 -88.61470 37000 ft 541 kts 71°
2026-05-06 23:04 30.88548 -88.53041 37005 ft 541 kts 71°
2026-05-06 23:04 30.90587 -88.44606 37006 ft 541 kts 71°
2026-05-06 23:05 30.92894 -88.36294 37006 ft 537 kts 61°
2026-05-06 23:05 30.96463 -88.28734 37016 ft 530 kts 56°
2026-05-06 23:06 31.00097 -88.21289 37010 ft 528 kts 56°
2026-05-06 23:06 31.03715 -88.13831 36993 ft 528 kts 56°
2026-05-06 23:07 31.07318 -88.06435 36997 ft 528 kts 56°
2026-05-06 23:07 31.10939 -87.99007 36990 ft 529 kts 56°
2026-05-06 23:08 31.14573 -87.91508 36982 ft 529 kts 56°
2026-05-06 23:08 31.18188 -87.84024 36977 ft 529 kts 56°
2026-05-06 23:09 31.21803 -87.76526 36984 ft 530 kts 56°
2026-05-06 23:09 31.25402 -87.69057 36974 ft 526 kts 56°
2026-05-06 23:10 31.28993 -87.61596 36965 ft 526 kts 56°
2026-05-06 23:10 31.33164 -87.54685 36953 ft 517 kts 43°
2026-05-06 23:11 31.37869 -87.48323 36951 ft 517 kts 43°
2026-05-06 23:11 31.42565 -87.41935 36945 ft 518 kts 43°
2026-05-06 23:12 31.47251 -87.35554 36940 ft 518 kts 43°
2026-05-06 23:12 31.51952 -87.29149 36914 ft 516 kts 44°
2026-05-06 23:13 31.56616 -87.22766 36906 ft 515 kts 44°
2026-05-06 23:13 31.61284 -87.16376 36949 ft 516 kts 44°
2026-05-06 23:14 31.65953 -87.09982 36921 ft 516 kts 44°
2026-05-06 23:14 31.70622 -87.03568 36911 ft 516 kts 44°
2026-05-06 23:15 31.75292 -86.97154 36919 ft 517 kts 44°
2026-05-06 23:15 31.79961 -86.90731 36952 ft 517 kts 44°
2026-05-06 23:16 31.84628 -86.84292 36968 ft 518 kts 44°
2026-05-06 23:16 31.89292 -86.77832 36980 ft 518 kts 44°
2026-05-06 23:17 31.93930 -86.71411 36989 ft 518 kts 44°
2026-05-06 23:17 31.98600 -86.64934 36982 ft 518 kts 44°
2026-05-06 23:18 32.03265 -86.58455 36996 ft 519 kts 44°
2026-05-06 23:18 32.07938 -86.51960 36966 ft 520 kts 44°
2026-05-06 23:19 32.12619 -86.45447 36986 ft 521 kts 44°
2026-05-06 23:19 32.17295 -86.38919 36996 ft 521 kts 44°
2026-05-06 23:20 32.21828 -86.32224 37004 ft 526 kts 53°
2026-05-06 23:20 32.25109 -86.24429 36956 ft 532 kts 63°
2026-05-06 23:21 32.28126 -86.16451 36958 ft 532 kts 63°
2026-05-06 23:21 32.31130 -86.08518 36979 ft 533 kts 62°
2026-05-06 23:22 32.34173 -86.00450 36968 ft 534 kts 62°
2026-05-06 23:22 32.37169 -85.92472 36967 ft 535 kts 62°
2026-05-06 23:23 32.40189 -85.84422 36978 ft 535 kts 63°
2026-05-06 23:23 32.43203 -85.76365 36984 ft 536 kts 63°
2026-05-06 23:24 32.46232 -85.68238 37002 ft 536 kts 63°
2026-05-06 23:24 32.49219 -85.60220 37014 ft 536 kts 63°
2026-05-06 23:25 32.52230 -85.52141 37025 ft 536 kts 63°
2026-05-06 23:25 32.55231 -85.44062 37046 ft 537 kts 63°
2026-05-06 23:26 32.58227 -85.35941 37021 ft 538 kts 63°
2026-05-06 23:26 32.61217 -85.27795 36990 ft 539 kts 63°
2026-05-06 23:27 32.64215 -85.19645 36988 ft 539 kts 63°
2026-05-06 23:27 32.67210 -85.11487 36988 ft 540 kts 63°
2026-05-06 23:28 32.69701 -85.04690 37006 ft 540 kts 63°
2026-05-06 23:28 32.72699 -84.96515 37009 ft 540 kts 62°
2026-05-06 23:29 32.75687 -84.88327 37012 ft 540 kts 63°
2026-05-06 23:29 32.78662 -84.80122 37043 ft 541 kts 62°
2026-05-06 23:30 32.81641 -84.71894 36999 ft 542 kts 62°
2026-05-06 23:30 32.84625 -84.63658 36982 ft 543 kts 62°
2026-05-06 23:31 32.87612 -84.55395 36980 ft 544 kts 62°
2026-05-06 23:31 32.90590 -84.47112 36981 ft 545 kts 62°
2026-05-06 23:32 32.93571 -84.38812 36986 ft 545 kts 62°
2026-05-06 23:32 32.96547 -84.30503 37025 ft 546 kts 62°
2026-05-06 23:33 32.99525 -84.22175 37026 ft 547 kts 62°
2026-05-06 23:33 33.02504 -84.13837 37057 ft 548 kts 62°
2026-05-06 23:34 33.05481 -84.05466 36990 ft 549 kts 62°
2026-05-06 23:34 33.08460 -83.97080 36997 ft 550 kts 62°
2026-05-06 23:35 33.11437 -83.88648 37003 ft 551 kts 62°
2026-05-06 23:35 33.14401 -83.80213 37007 ft 551 kts 62°
2026-05-06 23:36 33.17349 -83.71835 37008 ft 551 kts 62°
2026-05-06 23:36 33.20313 -83.63401 37006 ft 551 kts 62°
2026-05-06 23:37 33.23272 -83.54956 36995 ft 551 kts 62°
2026-05-06 23:37 33.26217 -83.46509 36994 ft 551 kts 62°
2026-05-06 23:38 33.29160 -83.38054 36996 ft 551 kts 62°
2026-05-06 23:38 33.32103 -83.29600 36998 ft 551 kts 62°
2026-05-06 23:39 33.35038 -83.21135 36997 ft 551 kts 62°
2026-05-06 23:39 33.37956 -83.12656 36993 ft 551 kts 62°
2026-05-06 23:40 33.40869 -83.04185 37005 ft 551 kts 62°
2026-05-06 23:40 33.43783 -82.95703 37007 ft 550 kts 62°
2026-05-06 23:41 33.46695 -82.87231 37005 ft 550 kts 62°
2026-05-06 23:41 33.49602 -82.78743 36996 ft 550 kts 61°
2026-05-06 23:42 33.52492 -82.70257 37010 ft 550 kts 61°
2026-05-06 23:42 33.55379 -82.61764 37027 ft 551 kts 61°
2026-05-06 23:43 33.58269 -82.53248 37042 ft 551 kts 61°
2026-05-06 23:43 33.61150 -82.44737 36723 ft 552 kts 62°
2026-05-06 23:43 33.62588 -82.40477 36253 ft 550 kts 62°
2026-05-06 23:44 33.64019 -82.36227 35787 ft 549 kts 62°
2026-05-06 23:44 33.65430 -82.32030 35337 ft 549 kts 62°
2026-05-06 23:44 33.66852 -82.27788 34892 ft 548 kts 62°
2026-05-06 23:44 33.68288 -82.23498 34446 ft 548 kts 62°
2026-05-06 23:45 33.69713 -82.19246 34013 ft 547 kts 62°
2026-05-06 23:45 33.71106 -82.14989 33555 ft 548 kts 65°
2026-05-06 23:45 33.72371 -82.10676 33112 ft 547 kts 68°
2026-05-06 23:45 33.73487 -82.06366 32911 ft 547 kts 70°
2026-05-06 23:46 33.74526 -82.01962 32991 ft 549 kts 71°
2026-05-06 23:46 33.76558 -81.93125 32977 ft 549 kts 70°
2026-05-06 23:46 33.77614 -81.88715 32734 ft 549 kts 70°
2026-05-06 23:47 33.78706 -81.84324 32384 ft 547 kts 69°
2026-05-06 23:47 33.79821 -81.79952 32129 ft 547 kts 69°
2026-05-06 23:47 33.80942 -81.75592 31870 ft 546 kts 69°
2026-05-06 23:47 33.82056 -81.71227 31608 ft 546 kts 69°
2026-05-06 23:48 33.83156 -81.66860 31343 ft 545 kts 70°
2026-05-06 23:48 33.84241 -81.62494 31063 ft 544 kts 70°
2026-05-06 23:48 33.85315 -81.58135 30928 ft 542 kts 70°
2026-05-06 23:49 33.88447 -81.49999 30972 ft 533 kts 53°
2026-05-06 23:49 33.92299 -81.42367 30990 ft 533 kts 54°
2026-05-06 23:50 33.96125 -81.34730 30967 ft 532 kts 54°
2026-05-06 23:50 34.01833 -81.23265 30956 ft 531 kts 54°
2026-05-06 23:51 34.05641 -81.15628 30964 ft 531 kts 54°
2026-05-06 23:51 34.09437 -81.07985 30981 ft 531 kts 54°
2026-05-06 23:52 34.13223 -81.00339 30981 ft 531 kts 54°
2026-05-06 23:52 34.17010 -80.92690 31008 ft 530 kts 55°
2026-05-06 23:53 34.20787 -80.85047 30999 ft 529 kts 55°
2026-05-06 23:53 34.24555 -80.77406 30995 ft 529 kts 55°
2026-05-06 23:54 34.28310 -80.69767 30993 ft 529 kts 55°
2026-05-06 23:54 34.32041 -80.62136 30836 ft 519 kts 56°
2026-05-06 23:55 34.33850 -80.58420 30525 ft 508 kts 56°
2026-05-06 23:55 34.35620 -80.54779 30292 ft 496 kts 56°
2026-05-06 23:55 34.37327 -80.51274 30082 ft 484 kts 56°
2026-05-06 23:55 34.39024 -80.47798 29815 ft 476 kts 55°
2026-05-06 23:56 34.40703 -80.44364 29543 ft 472 kts 55°
2026-05-06 23:56 34.42374 -80.40944 29283 ft 470 kts 55°
2026-05-06 23:56 34.44030 -80.37550 28994 ft 466 kts 55°
2026-05-06 23:56 34.45672 -80.34181 28449 ft 464 kts 55°
2026-05-06 23:57 34.47307 -80.30822 27918 ft 462 kts 55°
2026-05-06 23:57 34.48932 -80.27477 27658 ft 464 kts 55°
2026-05-06 23:57 34.50583 -80.24078 27223 ft 471 kts 55°
2026-05-06 23:57 34.52242 -80.20655 26597 ft 470 kts 55°
2026-05-06 23:58 34.53891 -80.17242 25994 ft 468 kts 55°
2026-05-06 23:58 34.55536 -80.13840 25499 ft 464 kts 54°
2026-05-06 23:58 34.57151 -80.10496 25148 ft 457 kts 54°
2026-05-06 23:58 34.58752 -80.07176 24560 ft 457 kts 54°
2026-05-06 23:59 34.60379 -80.03806 23699 ft 466 kts 54°
2026-05-06 23:59 34.62007 -80.00421 23147 ft 462 kts 54°
2026-05-06 23:59 34.63615 -79.97066 22607 ft 458 kts 54°
2026-05-06 23:59 34.65210 -79.93733 22078 ft 455 kts 54°
2026-05-07 00:00 34.66806 -79.90432 21525 ft 451 kts 52°
2026-05-07 00:00 34.68663 -79.87432 20981 ft 440 kts 41°
2026-05-07 00:00 34.70869 -79.84940 20719 ft 423 kts 31°
2026-05-07 00:00 34.72415 -79.83558 20586 ft 414 kts 28°
2026-05-07 00:01 34.75494 -79.80837 20259 ft 403 kts 29°
2026-05-07 00:01 34.77764 -79.78826 20077 ft 403 kts 29°
2026-05-07 00:01 34.80024 -79.76827 19852 ft 400 kts 29°
2026-05-07 00:01 34.82271 -79.74842 19652 ft 399 kts 28°
2026-05-07 00:02 34.84516 -79.72861 19416 ft 398 kts 28°
2026-05-07 00:02 34.86755 -79.70882 19196 ft 397 kts 28°
2026-05-07 00:02 34.88982 -79.68910 18977 ft 396 kts 28°
2026-05-07 00:02 34.91210 -79.66934 18724 ft 395 kts 28°
2026-05-07 00:03 34.93426 -79.64968 18508 ft 394 kts 28°
2026-05-07 00:03 34.95635 -79.63006 18289 ft 393 kts 28°
2026-05-07 00:03 34.97837 -79.61050 18053 ft 391 kts 29°
2026-05-07 00:03 35.00008 -79.59121 17838 ft 390 kts 29°
2026-05-07 00:04 35.02200 -79.57176 17624 ft 389 kts 29°
2026-05-07 00:04 35.04390 -79.55234 17411 ft 389 kts 29°
2026-05-07 00:04 35.06574 -79.53295 17198 ft 388 kts 29°
2026-05-07 00:04 35.08757 -79.51372 16983 ft 385 kts 26°
2026-05-07 00:05 35.11079 -79.49824 16762 ft 375 kts 15°
2026-05-07 00:05 35.13521 -79.48843 16568 ft 365 kts
2026-05-07 00:05 35.16006 -79.48395 16406 ft 359 kts 358°
2026-05-07 00:05 35.18490 -79.48077 16233 ft 359 kts 358°
2026-05-07 00:06 35.20969 -79.47751 16011 ft 358 kts 358°
2026-05-07 00:06 35.23442 -79.47416 15808 ft 358 kts 359°
2026-05-07 00:06 35.25918 -79.47078 15620 ft 358 kts 359°
2026-05-07 00:06 35.28385 -79.46740 15422 ft 357 kts 359°
2026-05-07 00:07 35.30855 -79.46406 15235 ft 358 kts 359°
2026-05-07 00:07 35.33336 -79.45968 15019 ft 364 kts
2026-05-07 00:07 35.35743 -79.44890 14815 ft 374 kts 21°
2026-05-07 00:07 35.37928 -79.43105 14607 ft 381 kts 34°
2026-05-07 00:08 35.39967 -79.41037 14390 ft 379 kts 35°
2026-05-07 00:08 35.41990 -79.38991 14178 ft 376 kts 34°
2026-05-07 00:08 35.44006 -79.36959 13975 ft 374 kts 35°
2026-05-07 00:08 35.46012 -79.34937 13762 ft 373 kts 35°
2026-05-07 00:09 35.48017 -79.32918 13538 ft 372 kts 34°
2026-05-07 00:09 35.50018 -79.30905 13333 ft 371 kts 35°
2026-05-07 00:09 35.52009 -79.28894 13125 ft 370 kts 35°
2026-05-07 00:09 35.53993 -79.26886 12925 ft 370 kts 35°
2026-05-07 00:10 35.55977 -79.24877 12713 ft 368 kts 35°
2026-05-07 00:10 35.57949 -79.22880 12518 ft 368 kts 35°
2026-05-07 00:10 35.59922 -79.20882 12310 ft 367 kts 35°
2026-05-07 00:10 35.61885 -79.18891 12059 ft 365 kts 35°
2026-05-07 00:11 35.63681 -79.16742 11766 ft 367 kts 46°
2026-05-07 00:11 35.65256 -79.14209 11085 ft 374 kts 51°
2026-05-07 00:11 35.66784 -79.11651 10740 ft 368 kts 51°
2026-05-07 00:11 35.68262 -79.09160 10607 ft 352 kts 51°
2026-05-07 00:12 35.69663 -79.06787 10288 ft 336 kts 51°
2026-05-07 00:12 35.71020 -79.04495 9881 ft 326 kts 50°
2026-05-07 00:12 35.72355 -79.02251 9645 ft 326 kts 50°
2026-05-07 00:12 35.73696 -79.00009 9313 ft 324 kts 50°
2026-05-07 00:13 35.75031 -78.97779 8981 ft 323 kts 50°
2026-05-07 00:13 35.76370 -78.95540 8636 ft 324 kts 50°
2026-05-07 00:13 35.77744 -78.93359 8299 ft 320 kts 43°
2026-05-07 00:13 35.79403 -78.91582 7967 ft 312 kts 28°
2026-05-07 00:14 35.81292 -78.90351 7664 ft 303 kts 15°
2026-05-07 00:14 35.83280 -78.89636 7374 ft 295 kts
2026-05-07 00:14 35.85253 -78.89023 7194 ft 288 kts
2026-05-07 00:14 35.87164 -78.88420 7086 ft 278 kts
2026-05-07 00:15 35.88983 -78.87839 6895 ft 264 kts
2026-05-07 00:15 35.90745 -78.87279 6720 ft 258 kts
2026-05-07 00:15 35.92479 -78.86731 6588 ft 257 kts
2026-05-07 00:15 35.94171 -78.85988 6403 ft 262 kts 22°
2026-05-07 00:16 35.95642 -78.84629 6188 ft 267 kts 40°
2026-05-07 00:16 35.96504 -78.83557 6048 ft 264 kts 40°
2026-05-07 00:16 35.97808 -78.81950 5675 ft 266 kts 41°
2026-05-07 00:16 35.99137 -78.80339 5302 ft 268 kts 40°
2026-05-07 00:17 36.00447 -78.78744 4932 ft 261 kts 40°
2026-05-07 00:17 36.01741 -78.77175 4579 ft 262 kts 41°
2026-05-07 00:17 36.03058 -78.75606 4190 ft 264 kts 40°
2026-05-07 00:17 36.04374 -78.74035 3857 ft 261 kts 41°
2026-05-07 00:18 36.05670 -78.72485 3611 ft 258 kts 45°
2026-05-07 00:18 36.06522 -78.70570 3392 ft 253 kts 80°
2026-05-07 00:18 36.06477 -78.68457 3276 ft 244 kts 114°
2026-05-07 00:18 36.05720 -78.66645 3152 ft 235 kts 128°
2026-05-07 00:19 36.04790 -78.65005 3054 ft 230 kts 139°
2026-05-07 00:19 36.03529 -78.63983 2992 ft 207 kts 166°
2026-05-07 00:19 36.02219 -78.63440 2988 ft 190 kts 171°
2026-05-07 00:19 36.01007 -78.63440 2975 ft 166 kts 214°
2026-05-07 00:20 36.00233 -78.64417 3006 ft 160 kts 235°
2026-05-07 00:20 35.99451 -78.65399 2999 ft 162 kts 226°
2026-05-07 00:20 35.98644 -78.66358 2914 ft 160 kts 227°
2026-05-07 00:20 35.97856 -78.67320 2706 ft 159 kts 227°
2026-05-07 00:21 35.97072 -78.68286 2504 ft 159 kts 228°
2026-05-07 00:21 35.96295 -78.69246 2272 ft 158 kts 227°
2026-05-07 00:21 35.95516 -78.70209 2081 ft 157 kts 227°
2026-05-07 00:21 35.94747 -78.71162 1877 ft 157 kts 227°
2026-05-07 00:22 35.93960 -78.72137 1686 ft 160 kts 227°
2026-05-07 00:22 35.93170 -78.73115 1458 ft 160 kts 226°
2026-05-07 00:22 35.92434 -78.74025 1256 ft 143 kts 226°
2026-05-07 00:22 35.91756 -78.74865 1084 ft 138 kts 225°
2026-05-07 00:23 35.91076 -78.75705 921 ft 140 kts 226°
2026-05-07 00:23 35.90381 -78.76561 744 ft 143 kts 226°
2026-05-07 00:23 35.89679 -78.77430 528 ft 143 kts 225°
2026-05-07 00:23 35.88991 -78.78282 393 ft 129 kts 225°
2026-05-07 00:24 35.88554 -78.78823 392 ft 61 kts 225°
2026-05-07 00:24 35.88352 -78.79062 391 ft 29 kts 205°
2026-05-07 00:24 35.88255 -78.79045 391 ft 8 kts 143°
2026-05-07 00:24 35.88253 -78.79044 391 ft 0 kts 142°
2026-05-07 00:25 35.88229 -78.79045 391 ft 13 kts 198°
2026-05-07 00:25 35.88150 -78.79137 392 ft 17 kts 225°
2026-05-07 00:25 35.88059 -78.79250 392 ft 20 kts 225°
2026-05-07 00:26 35.87954 -78.79378 392 ft 22 kts 225°
2026-05-07 00:26 35.87838 -78.79522 392 ft 25 kts 225°
2026-05-07 00:26 35.87708 -78.79681 392 ft 27 kts 225°
2026-05-07 00:26 35.87598 -78.79810 391 ft 18 kts 211°
2026-05-07 00:27 35.87489 -78.79758 392 ft 20 kts 135°
2026-05-07 00:27 35.87440 -78.79679 392 ft 8 kts 94°
2026-05-07 00:27 35.87476 -78.79634 392 ft 1 kts 19°
2026-05-07 00:27 35.87479 -78.79632 392 ft 0 kts 19°